Regional Weather Roundup
Issued by NWS

Home | Current Version | Previous Version | Text Only | Print | Product List | Glossary On
Versions: 1 2 3 4 5 6 7 8 9 10 11 12 13 14 15 16 17 18 19 20 21 22 23 24 25 26 27 28 29 30 31 32 33 34 35 36 37 38 39 40 41 42 43 44 45 46 47 48 49 50
000
ASUS44 KFWD 192303
RWRTX
NORTH TEXAS HOURLY WEATHER ROUNDUP
NATIONAL WEATHER SERVICE FORT WORTH TX
600 PM CDT THU APR 19 2018

NOTE: "FAIR" INDICATES FEW OR NO CLOUDS BELOW 12,000 FEET WITH NO
SIGNIFICANT WEATHER AND/OR OBSTRUCTIONS TO VISIBILITY.

TXZ118-119-200000-
DALLAS/FORT WORTH METROPLEX

CITY           SKY/WX    TMP DP  RH WIND       PRES   REMARKS
DFW AIRPORT    FAIR      69  31  24 NE15G21   30.25F
DALLAS LOVE    FAIR      71  33  24 NE13      30.26F
FTW MEACHAM    FAIR      71  37  28 NE12      30.26F
DAL-EXECUTIVE  FAIR      70  33  25 N10       30.25F
FTW-ALLIANCE   FAIR      69  37  30 NE12      30.26F
FTW-NAS-JRB    FAIR      71  33  24 NE12      30.26F
FTW-SPINKS     SUNNY     70  36  28 N9        30.28F
ARLINGTON      FAIR      69  32  25 N10       30.26F
GRAND PRAIRIE  SUNNY     70  32  24 N12       30.28F
ADDISON        SUNNY     68  30  24 N9G16     30.27F
MESQUITE       SUNNY     66  36  32 N10       30.27F
LANCASTER      FAIR      69  32  26 NE13      30.27F
$$

TXZ091>094-102>105-117-120-121-131>134-200000-
NORTH CENTRAL TEXAS

CITY           SKY/WX    TMP DP  RH WIND       PRES   REMARKS
SHRMAN/DENISON FAIR      65  33  30 NE8       30.29S
GAINESVILLE    FAIR      67  32  26 NE3       30.29F
BOWIE          FAIR      69  31  25 N9        30.27F
BRIDGEPORT     FAIR      72  32  23 NE9       30.27F
DECATUR        FAIR      70  31  24 N5        30.26F
DENTON         FAIR      69  36  29 NE9       30.26F
MCKINNEY       FAIR      67  37  33 NE9       30.27F
BONHAM         FAIR      65  37  35 NE9       30.27F
GREENVILLE     FAIR      70  32  24 N7        30.27S
ROCKWALL       FAIR      67  36  31 MISG      30.27F
TERRELL        FAIR      69  35  28 N12       30.26F
WAXAHACHIE     FAIR      69  37  30 N7        30.27F
CLEBURNE       FAIR      68  34  28 NE12      30.27F
GRANBURY       FAIR      72  36  27 N7        30.27F
$$

TXZ083>090-098>101-113>116-127>130-139>142-154-155-200000-
WESTERN NORTH TEXAS

CITY           SKY/WX    TMP DP  RH WIND       PRES   REMARKS
WICHITA FALLS  FAIR      70  31  23 NE8       30.26F
WF-KICKAPOO    FAIR      69  32  25 E7        30.28F
VERNON         FAIR      72  30  21 E12G20    30.26F
ABILENE        FAIR      72  28  19 E16G22    30.24F
ABILENE-DYESS  SUNNY     74  11   9 E13G20    30.23F
GRAHAM           N/A     72  34  25 NE8G16    30.24F
BRECKENRIDGE   FAIR      74  28  18 E9G16     30.24F
CISCO          FAIR      73  28  19 NE14G20   30.25F
EASTLAND       FAIR      71  32  23 NE10      30.24F
MINERAL WELLS  FAIR      72  33  24 NE10      30.23F
STEPHENVILLE   FAIR      71  32  23 NE10      30.27F
COMANCHE       FAIR      71  34  25 NE7       30.25F
BROWNWOOD      FAIR      72  27  18 E12       30.24F
COLEMAN        FAIR      74  28  17 E13G20    30.24S
BRADY          FAIR      72  28  20 E13       30.24F
$$

TXZ143>147-156>162-174-175-200000-
CENTRAL TEXAS

CITY           SKY/WX    TMP DP  RH WIND       PRES   REMARKS
WACO           FAIR      72  36  26 NE15      30.24F
WACO-TSTC      SUNNY     72  32  23 N12G21    30.24F
WACO-MCGREGOR  FAIR      71  37  28 NE13      30.24F
HILLSBORO      FAIR      70  39  33 NE10      30.24F
CORSICANA      FAIR      69  40  34 N8        30.26F
MEXIA          FAIR      67  37  32 NE7       30.24F
HEARNE         FAIR      69  42  38 N13       30.24S
CAMERON        FAIR      70  38  30 N12G20    30.24S
TEMPLE         FAIR      70  40  33 NE8G16    30.24F
KILLEEN        NOT AVBL
KILLEEN-SKYLRK FAIR      71  36  27 NE10G18   30.24F
FORT HOOD      FAIR      71  36  27 NE8       30.20F
GATESVILLE     FAIR      70  32  24 NE9G15    30.26S
HAMILTON       FAIR      72  35  26 E10       30.25F
LAMPASAS       FAIR      69  35  28 E10       30.23F
$$

TXZ095>097-106>112-122>126-135>138-148>153-164>167-200000-
EAST TEXAS

CITY           SKY/WX    TMP DP  RH WIND       PRES   REMARKS
PARIS          FAIR      65  37  35 N8        30.27F
SULPHUR SPRNGS FAIR      68  36  30 N7        30.28F
MOUNT PLEASANT FAIR      67  40  37 N6        30.27F
GILMER         FAIR      66  37  34 NE7       30.25F
MINEOLA        FAIR      68  36  30 N5        30.25F
TYLER          FAIR      69  34  27 N9        30.24F
LONGVIEW       FAIR      68  42  38 NE10      30.23F
MARSHALL       FAIR      67  36  31 NE6       30.26F
ATHENS         FAIR      68  37  32 NE7       30.24F
PALESTINE      FAIR      69  38  32 NE9       30.25F
JACKSONVILLE   FAIR      66  39  37 N3        30.26S
HENDERSON      FAIR      67  37  33 N10G16    30.25S
CENTER         FAIR      67  37  32 N9        30.24S
NACOGDOCHES      N/A     69  41  36 NE7       30.24R
LUFKIN         FAIR      69  41  36 N7        30.22S
$$

SUPPLEMENTAL OBSERVATIONS (NWS FORT WORTH AREA)

CITY           SKY/WX    TMP DP  RH WIND       PRES   REMARKS
$$

SUPPLEMENTAL OBSERVATIONS (NWS NORMAN AREA)

CITY           SKY/WX    TMP DP  RH WIND       PRES   REMARKS
GOODLETT         N/A     71  26  19 E14       30.24F
ODELL            N/A     71  29  21 E10       30.27F
CROWELL          N/A     71  31  22 E15       30.26F
KNOX CITY        N/A     72  27  19 E14       30.26F
SEYMOUR          N/A     70  32  25 NE12G17   30.27F
$$

SUPPLEMENTAL OBSERVATIONS (NWS SAN ANGELO AREA)

CITY           SKY/WX    TMP DP  RH WIND       PRES   REMARKS
WEINERT          N/A     70  29  22 NE10      30.26F
HASKELL          N/A     71  28  20 E9G16     30.25F
THROCKMORTON     N/A     69  35  28 E8        30.27F
STAMFORD         N/A     72  31  22 NE14      30.25F
CLYDE            N/A     71  32  23 E14       30.26F
$$

SUPPLEMENTAL OBSERVATIONS (NWS SHREVEPORT AREA)

CITY           SKY/WX    TMP DP  RH WIND       PRES   REMARKS
$$

SUPPLEMENTAL OBSERVATIONS ARE A COLLECTION OF AUTOMATED INSTRUMENTS
THAT ARE MAINTAINED BY A VARIETY OF FEDERAL AND STATE AGENCIES.
CERTAIN ELEMENTS...SUCH AS HUMIDITY VALUES AND SUSTAINED WIND
SPEEDS...MAY BE APPROXIMATED.





USA.gov is the U.S. government's official web portal to all federal, state and local government web resources and services.